Weather History for Soldotna, AK

Change the Weather History Date:

Sunday, April 8, 2012

  Actual Average Record
Temperature  
Mean Temperature 30 °F -  
Max Temperature 42 °F 40 °F 53 °F (1966)
Min Temperature 19 °F 22 °F -6 °F (1972)
Degree Days  
Heating Degree Days 34    
Moisture  
Dew Point 22 °F    
Average Humidity 71    
Maximum Humidity 93    
Minimum Humidity 45    
Precipitation  
Precipitation 0.00 in - - ()
Sea Level Pressure  
Sea Level Pressure 30.35 in    
Wind  
Wind Speed 4 mph (East)    
Max Wind Speed 9 mph    
Max Gust Speed -    
Visibility 10 miles    
Events      
Averages and records for this station are not official NWS values.
T = Trace of Precipitation, MM = Missing Value Source: NWS Daily Summary

Daily Weather History Graph

Daily Weather History Graph

Search for Another Location

Airport:

Trip Planner

Search our weather history database for the weather conditions in past years. The results will help you decide how hot, cold, wet, or windy it might be!

Date:

Astronomy

Apr. 08, 2012 Rise Set
Actual Time 7:04 AM AKDT 9:08 PM AKDT
Civil Twilight 6:19 AM AKDT 9:53 PM AKDT
Nautical Twilight 5:21 AM AKDT 10:52 PM AKDT
Astronomical Twilight 4:06 AM AKDT 12:09 AM AKDT
Moon No Moon Rise 7:19 AM AKDT (4/8)
Length of Visible Light 15h 33m
Length of Day
14h 03m
Waning Gibbous, 94% of the Moon is Illuminated
Apr 8
Waning Gibbous
Apr 13
Last Quarter
Apr 20
New
Apr 29
First Quarter
May 5
Full

Hourly Weather History & Observations

Time (AKDT) Temp. Windchill Dew Point Humidity Pressure Visibility Wind Dir Wind Speed Gust Speed Precip Events Conditions
12:16 AM 28.4 °F 24.6 °F 24.8 °F 86% 30.41 in 10.0 mi South 3.5 mph - N/A   Clear
12:36 AM 28.4 °F 24.6 °F 24.8 °F 86% 30.41 in 10.0 mi South 3.5 mph - N/A   Clear
12:56 AM 28.4 °F 23.3 °F 24.8 °F 86% 30.41 in 10.0 mi South 4.6 mph - N/A   Clear
1:16 AM 26.6 °F - 23.0 °F 86% 30.42 in 10.0 mi Calm Calm - N/A   Clear
1:36 AM 26.6 °F 22.6 °F 21.2 °F 80% 30.42 in 10.0 mi SSE 3.5 mph - N/A   Clear
1:56 AM 26.6 °F - 23.0 °F 86% 30.42 in 10.0 mi Calm Calm - N/A   Clear
2:16 AM 24.8 °F - 21.2 °F 86% 30.42 in 10.0 mi Calm Calm - N/A   Clear
2:56 AM 23.0 °F 18.4 °F 19.4 °F 86% 30.42 in 10.0 mi ENE 3.5 mph - N/A   Clear
3:16 AM 21.2 °F 16.4 °F 19.4 °F 93% 30.42 in 10.0 mi ENE 3.5 mph - N/A   Clear
3:36 AM 24.8 °F 19.1 °F 21.2 °F 86% 30.42 in 10.0 mi East 4.6 mph - N/A   Clear
3:56 AM 24.8 °F 20.5 °F 21.2 °F 86% 30.41 in 10.0 mi East 3.5 mph - N/A   Clear
4:16 AM 24.8 °F - 21.2 °F 86% 30.41 in 10.0 mi Calm Calm - N/A   Clear
4:36 AM 24.8 °F 20.5 °F 21.2 °F 86% 30.41 in 10.0 mi East 3.5 mph - N/A   Clear
4:56 AM 24.8 °F 20.5 °F 21.2 °F 86% 30.41 in 10.0 mi ESE 3.5 mph - N/A   Clear
5:16 AM 24.8 °F 20.5 °F 21.2 °F 86% 30.41 in 10.0 mi East 3.5 mph - N/A   Clear
5:36 AM 23.0 °F 18.4 °F 21.2 °F 93% 30.41 in 10.0 mi East 3.5 mph - N/A   Clear
5:56 AM 21.2 °F 16.4 °F 17.6 °F 86% 30.41 in 10.0 mi East 3.5 mph - N/A   Clear
6:16 AM 21.2 °F 16.4 °F 17.6 °F 86% 30.41 in 10.0 mi East 3.5 mph - N/A   Clear
6:36 AM 19.4 °F - 17.6 °F 93% 30.41 in 10.0 mi Calm Calm - N/A   Clear
6:56 AM 19.4 °F 14.3 °F 17.6 °F 93% 30.41 in 9.0 mi East 3.5 mph - N/A   Clear
7:16 AM 19.4 °F 12.8 °F 15.8 °F 86% 30.41 in 9.0 mi ENE 4.6 mph - N/A   Clear
7:36 AM 19.4 °F 14.3 °F 15.8 °F 86% 30.41 in 9.0 mi ENE 3.5 mph - N/A   Clear
7:56 AM 19.4 °F 10.4 °F 17.6 °F 93% 30.40 in 9.0 mi East 6.9 mph - N/A   Clear
8:16 AM 21.2 °F 13.6 °F 19.4 °F 93% 30.40 in 9.0 mi East 5.8 mph - N/A   Clear
8:36 AM 23.0 °F 13.9 °F 19.4 °F 86% 30.40 in 9.0 mi ESE 8.1 mph - N/A   Clear
8:56 AM 24.8 °F 15.3 °F 21.2 °F 86% 30.39 in 10.0 mi ESE 9.2 mph - N/A   Clear
9:16 AM 26.6 °F 17.5 °F 21.2 °F 80% 30.39 in 10.0 mi ESE 9.2 mph - N/A   Clear
9:36 AM 26.6 °F 17.5 °F 21.2 °F 80% 30.39 in 10.0 mi East 9.2 mph - N/A   Clear
9:56 AM 28.4 °F 20.4 °F 23.0 °F 80% 30.38 in 10.0 mi East 8.1 mph - N/A   Clear
10:16 AM 30.2 °F 23.4 °F 23.0 °F 75% 30.38 in 10.0 mi East 6.9 mph - N/A   Clear
10:36 AM 32.0 °F 24.8 °F 23.0 °F 69% 30.37 in 10.0 mi East 8.1 mph - N/A   Clear
10:56 AM 33.8 °F 26.4 °F 23.0 °F 65% 30.37 in 10.0 mi East 9.2 mph - N/A   Clear
11:16 AM 33.8 °F 27.0 °F 23.0 °F 65% 30.37 in 10.0 mi East 8.1 mph - N/A   Clear
11:36 AM 35.6 °F 29.2 °F 24.8 °F 65% 30.36 in 10.0 mi East 8.1 mph - N/A   Clear
11:56 AM 35.6 °F 29.2 °F 24.8 °F 65% 30.36 in 10.0 mi East 8.1 mph - N/A   Partly Cloudy
12:16 PM 37.4 °F 32.1 °F 24.8 °F 60% 30.35 in 10.0 mi East 6.9 mph - N/A   Mostly Cloudy
12:36 PM 37.4 °F 32.8 °F 24.8 °F 60% 30.34 in 10.0 mi East 5.8 mph - N/A   Scattered Clouds
12:56 PM 39.2 °F 35.9 °F 24.8 °F 56% 30.34 in 10.0 mi ESE 4.6 mph - N/A   Scattered Clouds
1:16 PM 39.2 °F 35.0 °F 24.8 °F 56% 30.33 in 10.0 mi ESE 5.8 mph - N/A   Mostly Cloudy
1:36 PM 39.2 °F - 24.8 °F 56% 30.32 in 10.0 mi Calm Calm - N/A   Overcast
1:56 PM 39.2 °F 35.0 °F 24.8 °F 56% 30.32 in 10.0 mi East 5.8 mph - N/A   Overcast
2:16 PM 41.0 °F 38.0 °F 23.0 °F 49% 30.31 in 10.0 mi SE 4.6 mph - N/A   Mostly Cloudy
2:36 PM 41.0 °F - 23.0 °F 49% 30.30 in 10.0 mi Calm Calm - N/A   Overcast
2:56 PM 41.0 °F 37.1 °F 21.2 °F 45% 30.29 in 10.0 mi SSW 5.8 mph - N/A   Overcast
3:16 PM 41.0 °F 39.0 °F 23.0 °F 49% 30.29 in 10.0 mi SSW 3.5 mph - N/A   Overcast
3:36 PM 41.0 °F - 23.0 °F 49% 30.28 in 10.0 mi Calm Calm - N/A   Overcast
3:56 PM 42.8 °F 40.1 °F 23.0 °F 46% 30.27 in 10.0 mi North 4.6 mph - N/A   Overcast
4:16 PM 41.0 °F 36.4 °F 23.0 °F 49% 30.27 in 10.0 mi NE 6.9 mph - N/A   Overcast
4:36 PM 41.0 °F 39.0 °F 21.2 °F 45% 30.26 in 10.0 mi NNE 3.5 mph - N/A   Overcast
4:56 PM 41.0 °F 37.1 °F 21.2 °F 45% 30.25 in 10.0 mi NE 5.8 mph - N/A   Overcast
5:16 PM 41.0 °F 39.0 °F 21.2 °F 45% 30.24 in 10.0 mi NNE 3.5 mph - N/A   Overcast
5:36 PM 41.0 °F 37.1 °F 24.8 °F 53% 30.23 in 10.0 mi North 5.8 mph - N/A   Overcast
5:56 PM 41.0 °F 38.0 °F 24.8 °F 53% 30.22 in 10.0 mi NNE 4.6 mph - N/A   Overcast
6:16 PM 41.0 °F 39.0 °F 23.0 °F 49% 30.22 in 10.0 mi East 3.5 mph - N/A   Overcast
6:36 PM 41.0 °F 38.0 °F 24.8 °F 53% 30.21 in 10.0 mi North 4.6 mph - N/A   Overcast
6:56 PM 41.0 °F - 24.8 °F 53% 30.21 in 10.0 mi Calm Calm - N/A   Overcast
7:16 PM 41.0 °F 38.0 °F 24.8 °F 53% 30.21 in 10.0 mi East 4.6 mph - N/A   Overcast
7:36 PM 41.0 °F 37.1 °F 23.0 °F 49% 30.21 in 10.0 mi South 5.8 mph - N/A   Overcast
7:56 PM 39.2 °F 35.0 °F 23.0 °F 52% 30.21 in 10.0 mi South 5.8 mph - N/A   Overcast
8:16 PM 39.2 °F 35.9 °F 23.0 °F 52% 30.20 in 10.0 mi South 4.6 mph - N/A   Overcast
8:36 PM 39.2 °F 37.0 °F 23.0 °F 52% 30.20 in 10.0 mi South 3.5 mph - N/A   Overcast
8:56 PM 37.4 °F - 21.2 °F 52% 30.20 in 10.0 mi Calm Calm - N/A   Overcast
9:16 PM 37.4 °F - 21.2 °F 52% 30.20 in 10.0 mi Calm Calm - N/A   Overcast
9:36 PM 37.4 °F 34.9 °F 23.0 °F 56% 30.20 in 10.0 mi East 3.5 mph - N/A   Overcast
9:56 PM 37.4 °F - 21.2 °F 52% 30.20 in 10.0 mi Calm Calm - N/A   Overcast
10:16 PM 33.8 °F - 23.0 °F 65% 30.20 in 10.0 mi Calm Calm - N/A   Overcast
10:36 PM 33.8 °F - 23.0 °F 65% 30.20 in - Calm Calm - N/A   Overcast
10:56 PM 33.8 °F - 23.0 °F 65% 30.20 in - Calm Calm - N/A   Overcast
11:16 PM 32.0 °F 26.4 °F 23.0 °F 69% 30.20 in - East 5.8 mph - N/A   Mostly Cloudy
11:36 PM 30.2 °F 26.7 °F 23.0 °F 75% 30.20 in 10.0 mi East 3.5 mph - N/A   Partly Cloudy
11:56 PM 30.2 °F 26.7 °F 21.2 °F 69% 30.20 in 10.0 mi East 3.5 mph - N/A   Scattered Clouds